www.pogodaiklimat.ru
ПОГОДА в Талой

Архив погоды в Талой (Магаданская область, Россия)

Время
(UTC), дата
18 12.06
21 12.06
00 13.06
03 13.06
06 13.06
09 13.06
12 13.06
15 13.06
18 13.06
21 13.06
00 14.06
03 14.06
06 14.06
09 14.06
12 14.06
15 14.06
18 14.06
21 14.06
00 15.06
03 15.06
06 15.06
09 15.06
12 15.06
15 15.06
18 15.06
21 15.06
00 16.06
03 16.06
06 16.06
09 16.06
12 16.06
15 16.06
18 16.06
21 16.06
00 17.06
03 17.06
06 17.06
09 17.06
12 17.06
15 17.06
18 17.06
21 17.06
00 18.06
03 18.06
06 18.06
09 18.06
12 18.06
15 18.06
18 18.06
21 18.06
00 19.06
03 19.06
06 19.06
09 19.06
12 19.06
15 19.06
Ветер
(напр.,м/с)
Видим. Явления Облачность Т
(С)
Тd
(С)
f
(%)
Тe
(С)
Тes
(С)
Комфортность P
(гПа)
Po
(гПа)
Тmin
(С)
Tmax
(С)
R
(мм)
R24
(мм)
S
(см)
штиль 0 50 км 3/0
[Ac lent]
-1.5 -2.9 90 -3 -2 1015.9 930.1
штиль 0 50 км 1/0
[Ac lent]
+12.1 -0.4 42 +12 +18 1011.5 929.9 -1.9
С 3 50 км 6/5 1000 м
[Cu med, cong Ac trans]
+17.8 -5.0 21 +18 +22 1008.7 928.8
С 1 50 км 8/8 1000 м
[Cb cap Ac trans]
+19.1 -5.2 19 +20 +23 1007.4 928.0
С 2 50 км 9/8 1000 м
[Cb cap Ac trans]
+17.4 -2.7 25 +18 +19 1007.7 927.8
В 1 50 км 8/4 1000 м
[Cb cap Ac trans]
+15.4 -1.6 31 +16 +17 1008.2 927.8 +20.4
ЮВ 1 50 км 4/4 1000 м
[Sc]
+4.8 +0.3 73 +4 +4 1012.0 928.4
штиль 0 50 км 6/3 1000 м
[Sc Ac trans]
-0.4 -2.5 86 -2 -2 1013.9 928.6
Ю 1 50 км 3/0
[Ac trans]
-0.9 -1.9 93 -3 -3 1014.1 928.6
С 1 50 км 1/0
[Ac trans]
+12.3 +0.5 44 +13 +18 1009.3 928.0 -2.2
СЗ 1 50 км 8/6 1000 м
[Cb cap Ac trans Ci fib]
+16.3 +0.3 34 +17 +22 1006.9 926.8
ЮЗ 1 50 км 9/8 1000 м
[Cb cap Ac trans]
+18.3 -0.7 28 +19 +22 1005.6 926.2
Ю 4 50 км 8/4 1000 м
[Cb cap Ac trans]
+16.9 +2.3 37 +17 +18 1005.3 925.6
Ю 2 50 км 6/5 1000 м
[Cb cap Ac trans]
+13.2 +3.2 51 +13 +13 1006.7 925.9 +19.5
ЮВ 1 50 км 5/3 1000 м
[Sc Ac trans]
+8.1 +3.2 71 +8 +8 1008.6 926.2
В 1 50 км 8/3 1000 м
[Sc Ac trans]
+3.6 +1.1 84 +2 +2 1010.0 926.2
Ю 1 50 км 3/0
[Ac trans]
+1.9 -0.1 87 0 +1 1010.6 926.3
Ю 2 50 км 1/0
[Ac trans]
+15.2 +3.1 44 +15 +20 1006.7 926.4 +0.5
З 2 50 км 8/4 1000 м
[Cu hum Ac trans]
+17.0 +2.8 39 +17 +22 1005.7 926.0
Ю 4 20 км гроза, ливневой дождь 8/8 1000 м
[Cb cap Ac trans]
+18.7 +2.0 33 +19 +21 1004.7 925.5
ЮЗ 3 {12} 50 км {гроза} 9/8 1000 м
[Cb cap Ac trans]
+16.9 +2.6 38 +17 +18 1005.9 926.1
ЮЗ 2 {10} 50 км 6/6 1000 м +16.8 +1.4 35 +17 +18 1006.3 926.4 +19.9 0.1
Ю 2 50 км 9/6 1000 м
[Cb cap Ac trans]
+12.9 +0.6 43 +12 +12 1008.8 927.7
ЮВ 1 50 км 5/3 1000 м
[Sc Ac trans]
+7.4 +0.6 62 +7 +7 1011.0 928.2
ЮВ 1 50 км 9/4 1000 м
[Sc Ac trans Cc]
+7.7 +0.9 62 +7 +7 1011.6 928.9
Ю 2 50 км 8/5 1000 м
[Cb cap Ac trans Cc]
+14.0 -0.2 38 +14 +16 1010.0 929.1 +5.2
ЮЗ 3 50 км 9/6 1000 м
[Cb cap Ac trans Ci fib]
+12.6 +3.1 52 +11 +14 1011.5 930.2
Ю 5-10 {10} 50 км 8/8 1000 м
[Cb cap Ac trans]
+11.9 +3.2 55 +10 +11 1011.6 930.0
Ю 4 {10} 50 км 6/3 1000 м
[Sc Ac trans]
+16.6 +0.6 34 +16 +19 1009.0 928.8
ЮЗ 2 50 км 8/4 1000 м
[Sc Ac trans]
+14.8 +0.6 38 +15 +15 1010.2 929.5 +18.4
Ю 2 50 км 8/6 1000 м
[Sc Ac trans]
+11.0 +1.0 50 +10 +10 1012.5 930.6
Ю 1 50 км 5/3 1000 м
[Sc Ac trans]
+8.1 +0.8 60 +8 +8 1013.7 930.9
штиль 0 50 км 8/6 1000 м
[Sc Ac trans]
+6.7 +1.3 68 +6 +6 1014.8 931.5
Ю 2 50 км 10/3 1000 м
[Sc Ac trans Cs]
+12.1 +2.9 53 +11 +13 1013.7 932.0 +4.7
ЮЗ 2 50 км 6/0
[Ac trans Ci fib]
+16.3 +0.1 33 +17 +25 1012.2 931.8
ЮЗ 4 50 км 5/0
[Ac trans]
+19.7 -2.1 23 +20 +26 1010.7 931.2
ЮЗ 4 50 км 5/3 1000 м
[Cu hum Ac trans]
+19.6 +1.5 30 +20 +23 1010.6 931.1
ЮЗ 3 20 км дым 4/3 1000 м
[Sc Ac trans]
+17.5 +1.8 35 +18 +18 1011.7 931.6 +20.4
Ю 2 20 км дым 6/3 1000 м
[Sc Ac trans Ci fib]
+12.1 +3.1 54 +11 +11 1014.7 933.0
Ю 2 10 км дым 10/0
[Ac trans Cs]
+10.3 +3.1 61 +9 +9 1016.2 933.8
Ю 1 50 км 10/3 1000 м
[Sc Ac trans Cs]
+8.1 +2.8 69 +8 +8 1017.5 934.4
Ю 1 50 км 10/1 1000 м
[Sc Ac trans Cs]
+13.6 +2.8 48 +14 +17 1016.5 935.0 +8.1
Ю 3 50 км 10/3 1000 м
[Sc Ac trans Ci fib]
+16.9 +3.0 39 +17 +20 1015.2 934.7
ЮЗ 3 50 км 9/6 1000 м
[Cu Sc Ac trans Ci fib]
+19.9 +3.9 35 +21 +23 комфорт 1013.9 934.3
ЮЗ 3 20 км дым 10/5 1000 м
[Cb cap Ac trans Cs]
+18.1 +4.2 40 +18 +20 1014.9 934.8
З 2 20 км дым 10/3 1000 м
[Cb cap Ac trans Cs]
+15.6 +4.4 47 +16 +16 1016.2 935.3 +20.1
Ю 1 20 км дым 8/4 1000 м
[Sc Ac trans]
+11.9 +5.0 63 +12 +12 1018.1 936.1
штиль 0 10 км дым 10/0
[Ac trans Cs]
+10.9 +5.4 69 +10 +10 1018.4 936.1
Ю 1 50 км 9/5 1000 м
[Sc Ac lent Cc]
+7.1 +5.0 86 +6 +6 1019.9 936.4
ЮВ 1 50 км 6/3 1000 м
[Sc Ac trans Cc]
+14.0 +5.5 57 +15 +18 1017.6 936.2 +6.6
СЗ 2 50 км 4/3 1000 м
[Cu Sc Ac trans Ci fib]
+19.5 +6.1 42 +21 +29 комфорт 1015.0 935.3
Ю 3 50 км 10/5 1000 м
[Cu Sc Ac trans Cs]
+21.9 +3.6 30 +22 +25 комфорт 1012.9 933.8
З 1 50 км 10/6 1000 м
[Cb cap Ac trans Cs]
+23.5 +2.4 25 +23 +24 комфорт 1011.2 932.7
СЗ 1 20 км дым 10/8 1000 м
[Cb cap Cs]
+20.4 +5.1 37 +22 +22 комфорт 1011.7 932.4 +24.9
Ю 1 20 км дым 8/3 1000 м
[Sc Ac trans]
+15.1 +6.6 57 +16 +16 1014.0 933.2
ЮВ 1 20 км дым 8/3 1000 м
[Sc Ac trans Ci fib]
+7.1 +4.7 85 +6 +6 1016.5 933.3
Местоположение метеостанции Талая (Магаданская область, Россия): широта 61.13 долгота 152.30 высота над уровнем моря 708 м.
В архиве по умолчанию представлена погода в Талой за последнюю неделю. Архивные данные за месяц целиком и за предыдущие месяцы, начиная с января 2011 года, Вы можете получить, выбрав интересующий диапазон дат из раскрывающегося списка и нажав кнопку "Найти!".
*Определитесь, кто Вы:
Внимание! Время в таблицах - всемирное. Для получения местного времени необходимо прибавить поправку, которая равна 11 ч.
Некоторые строки с данными для отдельных станций могут быть выделены курсивом. Это означает, что фактические данные отсутствуют по различным причинам, а приведенные значения являются расчетными модельными данными для данного пункта наблюдений.
Смотрите также архив погоды в соседних городах и на ближайших метеорологических станциях:
Партнеры нашего сайта:      
Пояснения к столбцам:
  • Ветер - указаны скорость ветра в м/с - средняя за 10 мин, порывы в срок и между сроками (в фигурных скобках) и направление, откуда дует ветер: С - северный,
  • СВ - северо-восточный, В - восточный, ЮВ - юго-восточный, Ю - южный, ЮЗ - юго-западный, З - западный, СЗ - северо-западный.
  • Видимость - горизонтальная дальность видимости в метрах или километрах. При видимости от 1 до 10 км при отсутствии осадков обычно наблюдается дымка, при ухудшении видимости до 1 км и менее - туман. В сухую погоду видимость может ухудшаться дымом, пылью или мглою.
  • Явления - указаны атмосферные явления, наблюдавшиеся в срок или в последний час перед сроком; фигурными скобками обозначены явления, наблюдавшиеся между сроками (за 1-3 часа до срока); квадратными скобками обозначены град или гололедные отложения с указанием их диаметра в мм.
  • Облачность - указаны через наклонную черту общая и нижняя облачность в баллах и высота нижней границы облаков в метрах; квадратными скобками обозначены формы облаков: Ci - перистые, Cs - перисто-слоистые, Cc - перисто-кучевые, Ac - высококучевые, As - высокослоистые, Sc - слоисто-кучевые, Ns - слоисто-дождевые, Cu - кучевые, Cb - кучево-дождевые. Подробнее классификацию облаков см. в Атласе облаков (PDF).
  • T - Температура воздуха - температура, измеренная на высоте 2 м над землей.
  • Td - Температура точки росы - температура, при понижении до которой содержащийся в воздухе водяной пар достигнет насыщения.
  • f - Относительная влажность воздуха - влажноcть воздуха, измеренная на высоте 2 м над землей.
  • Te - Эффективная температура - температура, которую ощущает одетый по сезону человек в тени. Характеристика душности погоды. При расчете учитывается влияние влажности воздуха и скорости ветра на теплоощущения человека.
  • Tes - Эффективная температура на солнце - температура, которую ощущает человек, с поправкой на солнечный нагрев. Характеристика знойности погоды. Зависит от высоты солнца над горизонтом, облачности и скорости ветра. Ночью, в пасмурную погоду, а также при ветре 12 м/с и более поправка равна нулю.
  • P - Атмосферное давление - приведенное к уровню моря атмосферное давление.
  • Po - Атмосферное давление - измеренное на уровне метеостанции атмосферное давление.
  • Tmin - Минимальная температура - минимум температуры воздуха на высоте 2 м над землей.
  • Tmax - Максимальная температура - максимум температуры воздуха на высоте 2 м над землей.
  • R - Количество осадков - Количество выпавших осадков за период времени, мм. При наведении курсора мыши на число - период времени, за который выпало указанное количество осадков.
  • R24 - Количество осадков - Количество выпавших осадков за 24 часа, мм.
  • S - Снежный покров - Высота снежного покрова, см. При наведении курсора мыши на число - состояние снежного покрова и степень покрытия местности в баллах.